Location: Beert
(50.7391°N, 4.1791°E)
Time: 10:09:00
(UTC+00:00)

Daily predictions for brighter satellites

Satellite Brightness Start Highest point End
(mag) Time Altitude Azimuth Time Altitude Azimuth Time Altitude Azimuth
SPOT 3 Rocket 3.7 20:34:59 10° SSE 20:40:03 64° ENE 20:45:09 10° N
Aureole 2 4.3 20:38:29 10° SSW 20:41:23 67° WNW 20:44:09 10° NNE
YAOGAN 11 4.2 20:38:03 10° NNE 20:42:30 65° ESE 20:46:53 10° S
NOSS 2-2 (D) 3.7 20:39:46 10° WSW 20:42:57 50° NW 20:45:54 10° NE
Cosmos 2082 4.1 20:38:57 10° SW 20:44:33 71° WNW 20:50:11 10° NNE
Cosmos 2227 4.3 20:40:01 10° SSW 20:45:39 62° ESE 20:51:21 10° NE
Okean 3 Rocket 3.8 20:41:54 10° N 20:46:19 57° ENE 20:50:39 10° SSE
Cosmos 724 4.5 20:40:55 10° NW 20:46:44 68° NE 20:52:29 10° SE
Meteor 2-20 Rocket 4.4 20:42:23 10° S 20:48:11 84° E 20:54:15 10° NNE
CZ-4 R/B 3.9 20:46:00 10° SW 20:48:21 16° W 20:50:43 10° NW
Helios 1A Rocket 3.4 20:45:34 10° N 20:48:34 46° WNW 20:51:35 10° SW
Cosmos 2263 Rocket 4.0 20:43:41 10° WSW 20:48:49 37° NW 20:53:58 10° NNE
Ariane Rocket 3.2 20:44:42 10° SSE 20:49:41 60° ENE 20:54:41 10° N
IRS-1C Rocket 4.3 20:45:04 10° SSE 20:50:14 61° ENE 20:55:26 10° N
Okean-O 3.1 20:46:30 10° S 20:50:48 58° W 20:55:09 10° NNW
Cosmos 1805 Rocket 4.2 20:48:26 10° N 20:52:34 42° ENE 20:56:41 10° SE
Spot 2 Rocket 4.2 20:47:45 10° S 20:52:42 54° W 20:57:41 10° NNW
Cosmos 1340 Rocket 2.7 20:52:14 10° N 20:56:00 65° ENE 20:59:42 10° SSE
NOSS 3-2 (A) 3.2 20:51:27 10° SSW 20:56:19 55° SE 21:02:10 10° NE
Cosmos 1408 Rocket 4.1 20:52:29 10° N 20:56:45 47° ENE 21:01:00 10° SSE
Cosmos 1603 3.8 20:52:07 10° NNW 20:57:53 83° WSW 21:03:35 10° SSE
Cosmos 1842 Rocket 3.6 20:53:55 10° S 20:58:21 88° ESE 21:02:49 10° N
USA 215 3.4 20:51:54 10° ESE 20:58:25 77° NNE 21:04:58 10° WNW
Cosmos 773 Rocket 4.1 20:55:39 10° SSW 21:00:47 80° WNW 21:06:00 10° NNE
BREEZE-M DEB (TANK) 3.4 21:00:07 10° WSW 21:01:03 12° SW 21:01:56 10° S
Cosmos 1743 Rocket 4.5 21:00:06 10° N 21:04:04 34° ENE 21:07:49 11° SE
Cosmos 1703 4.4 21:04:34 12° SE 21:06:37 19° E 21:09:00 10° NE
USA 245 3.1 21:03:32 10° S 21:07:18 74° WSW 21:10:23 10° NNW
Meteor 2-10 Rocket 4.3 21:02:06 10° NNW 21:07:48 59° W 21:13:25 10° S
Cosmos 1844 Rocket 2.7 21:02:30 10° SSW 21:08:04 87° ESE 21:13:41 10° NNE
SL-14 R/B 3.1 21:07:28 10° S 21:11:10 89° E 21:14:56 10° N
Cosmos 1238 Rocket 4.5 21:08:07 10° SSW 21:12:46 43° WNW 21:17:17 10° N
CZ-4C R/B 3.8 21:07:35 10° NW 21:14:12 43° WSW 21:22:11 10° S
Cosmos 1553 Rocket 4.3 21:08:01 10° SSE 21:14:12 56° E 21:20:21 10° NNE
Cosmos 1833 Rocket 3.4 21:12:08 10° NNW 21:17:34 45° NE 21:22:56 10° ESE
Cosmos 1151 Rocket 3.2 21:14:40 10° S 21:18:55 58° E 21:23:11 10° NNE
Cosmos 2082 Rocket 4.4 21:18:25 10° N 21:22:13 18° NNE 21:25:59 10° ENE
CZ-2C R/B 2.0 21:23:48 17° SSE 21:25:45 62° ENE 21:28:29 10° N
Cosmos 1953 3.2 21:23:51 10° N 21:27:06 31° ENE 21:29:35 15° SE
SL-24 R/B - RUBIN 2 3.7 21:24:07 10° SW 21:28:38 79° NW 21:33:00 10° NE
Cosmos 1844 4.0 21:23:28 10° SW 21:29:15 76° WNW 21:35:05 10° NNE
CZ-4B R/B 3.7 21:24:45 11° S 21:29:42 71° WSW 21:34:54 10° NNW
Okean O Rocket 3.5 21:26:49 10° SSW 21:30:25 25° W 21:34:03 10° NW
Cosmos 1633 Rocket 4.3 21:31:04 10° N 21:34:57 30° ENE 21:38:07 14° SE
NOSS 3-2 (C) 3.4 21:33:01 10° SSW 21:37:45 44° ESE 21:43:22 10° NE
Cosmos 1461 3.7 21:39:45 10° WNW 21:42:51 30° WSW 21:45:06 15° S
NOSS 2-3 (C) 4.2 21:42:37 19° SSE 21:43:44 22° ESE 21:46:31 10° ENE
Cosmos 1745 Rocket 4.2 21:39:43 10° N 21:45:57 66° ENE 21:51:04 16° SSE
CZ-4B R/B 4.1 21:42:45 10° SSW 21:46:17 34° W 21:49:55 10° NNW
Cosmos 1500 Rocket 4.1 21:48:55 10° NNW 21:53:10 53° W 21:56:48 13° S
Helios 1A 3.6 21:51:39 10° NNE 21:55:18 35° E 21:57:27 20° SSE
Cosmos 2344 4.0 21:49:05 10° S 21:56:13 37° ESE 22:02:41 10° NE
GP-B 3.3 21:53:16 10° N 21:57:38 71° W 22:01:23 14° SSW
Helios 1B rocket 3.3 21:57:41 16° ESE 21:59:48 30° ENE 22:02:53 10° N
Iridium 4 Rocket 3.5 21:55:05 14° S 21:59:51 89° E 22:04:56 10° N
Cosmos 1607 4.4 21:54:30 10° NW 22:00:43 54° WSW 22:05:32 17° SSE
ARIANE 5 R/B 4.0 21:59:12 13° ESE 22:02:27 30° ENE 22:06:19 10° N
SWARM C 4.4 22:00:31 10° N 22:03:46 85° W 22:05:40 23° S
SWARM A 4.1 22:00:41 10° N 22:03:56 81° E 22:05:43 24° S
Cosmos 1470 Rocket 4.4 22:02:38 10° N 22:06:52 41° ENE 22:09:41 19° SE
Cosmos 1420 Rocket 4.2 22:04:13 10° NNW 22:09:26 65° ENE 22:13:10 19° SE
NOSS 2-3 (D) 3.1 22:07:12 10° SSW 22:10:50 61° SE 22:14:39 10° NE
ALOS 2 3.8 22:11:55 15° ESE 22:14:56 33° ENE 22:18:52 10° N
Cosmos 1538 Rocket 3.9 22:11:35 13° SSW 22:16:12 76° ESE 22:21:27 10° NNE
Cosmos 2315 Rocket 4.1 22:13:38 18° S 22:18:15 62° E 22:24:23 10° NNE
Cosmos 1943 Rocket 3.2 22:16:33 19° SSE 22:19:23 29° ESE 22:24:12 10° NE
CENTAUR R/B 4.3 22:14:14 10° W 22:20:02 38° NNW 22:27:14 10° NE
Iridium 45 4.5 22:18:34 22° SSW 22:20:20 60° W 22:23:22 10° N
Meteor 1-21 4.5 22:18:13 20° SSE 22:21:59 55° E 22:27:29 10° NNE
CZ-2C R/B 4.3 22:22:47 10° NNE 22:27:16 42° E 22:29:46 23° SSE
Cosmos 1328 Rocket 3.5 22:24:40 21° S 22:27:29 80° E 22:31:51 10° NNE
Lacrosse 5 rocket 1.7 22:30:44 29° SSE 22:31:17 31° SE 22:34:27 10° ENE
Cosmos 1666 Rocket 3.8 22:30:35 10° NNW 22:34:54 63° W 22:37:29 23° S
CZ-2C R/B 4.1 22:31:44 10° ESE 22:36:01 27° ENE 22:40:22 10° N
NOSS 2-3 (E) 3.3 22:34:47 10° SW 22:38:26 75° NW 22:42:20 10° NE
Cosmos 1371 Rocket 4.3 22:34:48 10° NNW 22:40:02 61° ENE 22:43:38 20° SE
USA 215 3.6 22:37:29 20° SSE 22:41:44 47° SW 22:48:00 10° WNW
GEOS 3 Rocket 3.7 22:45:16 21° SSE 22:48:52 72° SW 22:54:17 10° NW
Timation 1 Rocket 4.4 22:45:05 10° NW 22:51:02 66° WSW 22:54:45 23° SSE
S3M 4.3 22:48:41 15° SSW 22:53:49 64° WNW 22:59:57 10° N
NOSS 2-1 (D) 4.4 22:55:58 21° ESE 22:55:58 21° ESE 22:58:15 10° ENE
Cosmos 2154 Rocket 4.5 22:51:30 10° N 22:57:33 53° ENE 23:01:51 20° SE
Cosmos 1515 Rocket 3.6 22:55:38 28° S 22:57:51 68° E 23:02:10 10° NNE
Cosmos 2184 Rocket 4.4 22:52:26 10° N 22:58:37 58° ENE 23:02:54 21° SSE
ARGOS Delta rocket 4.1 22:53:22 10° N 22:58:48 87° WNW 23:02:18 22° SSW
CSL-04 DEB 4.1 22:57:32 32° S 22:59:08 77° WSW 23:02:50 10° NNW
Cosmos 1833 Rocket 3.5 22:56:13 10° NW 23:01:25 38° WSW 23:04:36 21° SSW
USA 59 Rocket 0.4 23:01:29 27° SE 23:01:29 27° SE 23:04:12 10° ENE
Cosmos 1953 4.0 22:59:05 10° NW 23:01:50 21° W 23:03:47 14° SW
Spot 4 3.8 22:59:30 26° S 23:02:15 81° WSW 23:07:07 10° NNW
Meteor 1-16 Rocket 4.5 22:59:48 10° NNW 23:05:12 59° W 23:08:42 23° SSW
SAR-Lupe-2 3.9 23:05:49 29° SE 23:07:06 47° ENE 23:10:13 10° N
Cosmos 2082 Rocket 2.6 23:01:52 10° NNW 23:07:29 61° NE 23:11:52 17° SE
Okean 3 3.5 23:09:18 31° SSE 23:10:58 59° E 23:14:55 10° NNE
Meteor 1-23 Rocket 4.5 23:07:55 18° SSW 23:12:04 65° WNW 23:17:38 10° N
Cosmos 1633 Rocket 4.3 23:08:40 10° NNW 23:12:35 33° W 23:15:02 19° SW
Cosmos 2278 Rocket 2.4 23:09:54 25° S 23:13:07 56° ESE 23:18:40 10° NE
Cosmos 1331 Rocket 4.4 23:14:46 10° NNW 23:19:51 57° ENE 23:23:33 18° SE
Cosmos 1400 Rocket 2.6 23:20:27 10° NNW 23:24:08 68° W 23:25:30 35° S
Cosmos 1624 Rocket 4.2 23:19:07 10° NNW 23:24:22 63° WSW 23:27:15 27° S
COSMOS 2406 4.2 23:20:14 10° NNW 23:25:42 44° NE 23:31:07 10° ESE
Cosmos 1680 Rocket 3.5 23:22:43 22° SSW 23:26:06 87° WNW 23:31:21 10° NNE
CZ-2C R/B 3.4 23:21:07 10° NNE 23:26:40 60° E 23:29:38 26° S
Cosmos 494 Rocket 3.9 23:24:38 24° SSW 23:27:51 84° ESE 23:33:08 10° NNE
NOSS 3-2 (C) 4.2 23:23:23 10° WSW 23:28:31 48° NNW 23:34:46 10° NE
Cosmos 2056 Rocket 3.8 23:26:07 10° NNW 23:31:06 53° WSW 23:33:38 27° S
Helios 1B rocket 3.7 23:31:35 19° SW 23:32:46 22° W 23:35:33 10° NW
NOSS 2-3 (C) 4.4 23:30:22 10° WSW 23:33:36 39° NW 23:37:13 10° NE
Cosmos 1048 Rocket 4.4 23:31:19 26° SSE 23:33:53 48° ESE 23:38:56 10° NNE
Cosmos 1812 3.1 23:34:38 10° NNW 23:35:32 24° NNW 23:35:32 24° NNW
Cosmos 1328 4.3 23:35:16 30° SE 23:36:26 40° E 23:39:48 10° NNE
ARIANE 5 R/B 3.5 23:36:34 24° SSW 23:38:39 37° W 23:42:48 10° NNW
ACS3 Solar Sail 2.4 23:34:26 10° NNE 23:39:48 40° E 23:43:12 21° SSE
USA 238 DEB 3.5 23:36:16 17° SW 23:41:05 79° SE 23:47:55 10° NE
USA 238 3.5 23:36:31 18° SSW 23:41:18 78° SE 23:48:08 10° NE
Lacrosse 4 Rocket 4.3 23:39:06 10° N 23:41:39 15° NNE 23:44:13 10° ENE
Cosmos 546 4.5 23:46:11 15° WSW 23:49:15 64° SSE 23:53:01 10° E
BREEZE-M DEB (TANK) 3.3 23:36:28 10° W 23:49:33 81° S 23:53:32 10° ESE
ALOS 2 3.7 23:49:18 22° SW 23:51:15 33° W 23:55:15 10° NNW
Cosmos 1933 Rocket 4.2 23:47:53 10° NNW 23:51:57 41° W 23:53:53 26° SW
Cosmos 1441 Rocket 3.1 23:54:17 35° SW 23:55:23 56° WNW 23:58:35 10° N
